Weather History for KOZR - October, 2013

Change the Weather History Date:

Thursday, October 17, 2013

  Actual Average Record
Temperature  
Mean Temperature 72 °F -  
Max Temperature 84 °F 75 °F 89 °F (2007)
Min Temperature 61 °F 53 °F 41 °F (2001)
Cooling Degree Days 8    
Growing Degree Days 22 (Base 50)    
Moisture  
Dew Point 68 °F    
Average Humidity 89    
Maximum Humidity 100    
Minimum Humidity 56    
Precipitation  
Precipitation 0.00 in - - ()
Sea Level Pressure  
Sea Level Pressure 29.94 in    
Wind  
Wind Speed 4 mph (NW)    
Max Wind Speed 12 mph    
Max Gust Speed -    
Visibility 10 miles    
Events Rain    
Averages and records for this station are not official NWS values.
T = Trace of Precipitation, MM = Missing Value Source: NWS Daily Summary

Daily Weather History Graph

Daily Weather History Graph

Search for Another Location

Airport or City:

Trip Planner

Search our weather history database for the weather conditions in past years. The results will help you decide how hot, cold, wet, or windy it might be!

Date:

Astronomy

Oct. 17, 2013 Rise Set
Actual Time 6:47 AM CDT 6:08 PM CDT
Civil Twilight 6:22 AM CDT 6:32 PM CDT
Nautical Twilight 5:54 AM CDT 7:01 PM CDT
Astronomical Twilight 5:26 AM CDT 7:29 PM CDT
Moon 5:20 PM CDT (10/17) 5:22 AM CDT (10/17)
Length of Visible Light 12h 10m
Length of Day
11h 21m
Waxing Gibbous, 98% of the Moon is Illuminated
Oct 17
Waxing Gibbous
Oct 18
Full
Oct 26
Last Quarter
Nov 3
New
Nov 9
First Quarter

Hourly Weather History & Observations

Time (CDT) Temp. Heat Index Dew Point Humidity Pressure Visibility Wind Dir Wind Speed Gust Speed Precip Events Conditions
12:58 AM 64.0 °F - 62.2 °F 94% 29.96 in 10.0 mi Calm Calm - N/A   Clear
1:58 AM 63.1 °F - 61.5 °F 94% 29.96 in 10.0 mi Calm Calm - N/A   Clear
2:58 AM 62.1 °F - 60.4 °F 94% 29.95 in 10.0 mi Calm Calm - N/A   Clear
3:58 AM 61.7 °F - 60.6 °F 96% 29.95 in 10.0 mi Calm Calm - N/A   Clear
4:58 AM 61.5 °F - 60.4 °F 96% 29.95 in 10.0 mi Calm Calm - N/A   Clear
5:58 AM 61.3 °F - 59.9 °F 95% 29.96 in 10.0 mi ENE 2.3 mph - N/A   Clear
6:58 AM 61.0 °F - 59.9 °F 96% 29.98 in 10.0 mi North 1.2 mph - N/A   Scattered Clouds
7:58 AM 64.4 °F - 62.6 °F 94% 29.99 in 10.0 mi Calm Calm - N/A   Partly Cloudy
8:58 AM 72.0 °F - 66.4 °F 83% 29.99 in 10.0 mi SSE 3.5 mph - N/A   Clear
9:58 AM 75.4 °F - 67.5 °F 76% 29.99 in 10.0 mi South 5.8 mph - N/A   Mostly Cloudy
10:58 AM 78.6 °F - 68.4 °F 71% 29.99 in 10.0 mi SW 8.1 mph - N/A   Mostly Cloudy
11:58 AM 79.9 °F - 68.5 °F 68% 29.97 in 10.0 mi SW 9.2 mph - N/A   Scattered Clouds
12:58 PM 82.2 °F 85.3 °F 68.5 °F 63% 29.94 in 10.0 mi SW 9.2 mph - N/A   Mostly Cloudy
1:58 PM 84.2 °F 86.8 °F 66.9 °F 56% 29.91 in 10.0 mi SW 8.1 mph - N/A   Mostly Cloudy
2:58 PM 83.3 °F 86.4 °F 68.2 °F 60% 29.89 in 10.0 mi SSW 9.2 mph - N/A   Mostly Cloudy
3:58 PM 82.4 °F 85.2 °F 67.8 °F 61% 29.89 in 10.0 mi SW 6.9 mph - N/A   Overcast
4:50 PM 80.6 °F 83.2 °F 68.0 °F 65% 29.90 in 10.0 mi NW 4.6 mph - N/A   Light Drizzle
4:58 PM 79.5 °F - 68.9 °F 70% 29.90 in 10.0 mi NW 11.5 mph - 0.00 in   Light Drizzle
5:12 PM 75.2 °F - 69.8 °F 83% 29.91 in 10.0 mi NNW 8.1 mph - N/A   Overcast
5:29 PM 75.2 °F - 69.8 °F 83% 29.91 in 10.0 mi NW 8.1 mph - N/A Rain Light Rain
5:40 PM 73.4 °F - 69.8 °F 88% 29.92 in 10.0 mi WNW 8.1 mph - N/A   Overcast
5:46 PM 73.4 °F - 69.8 °F 88% 29.92 in 10.0 mi WNW 8.1 mph - N/A Rain Light Rain
5:58 PM 73.6 °F - 70.3 °F 90% 29.92 in 9.0 mi NW 8.1 mph - 0.00 in Rain Light Rain
5:59 PM 73.4 °F - 69.8 °F 88% 29.92 in 10.0 mi NW 9.2 mph - N/A   Overcast
6:27 PM 73.4 °F - 69.8 °F 88% 29.92 in 10.0 mi NW 5.8 mph - N/A   Light Drizzle
6:37 PM 73.4 °F - 69.8 °F 88% 29.92 in 10.0 mi NW 3.5 mph - N/A   Overcast
6:49 PM 73.4 °F - 69.8 °F 88% 29.92 in 10.0 mi Variable 3.5 mph - N/A   Light Drizzle
6:54 PM 73.4 °F - 69.8 °F 88% 29.92 in 8.0 mi West 3.5 mph - N/A   Light Drizzle
6:58 PM 73.2 °F - 70.7 °F 92% 29.92 in 7.0 mi WNW 4.6 mph - 0.00 in   Light Drizzle
7:07 PM 73.4 °F - 71.6 °F 94% 29.92 in 10.0 mi West 2.3 mph - N/A   Mostly Cloudy
7:17 PM 73.4 °F - 71.6 °F 94% 29.93 in 10.0 mi West 2.3 mph - N/A   Scattered Clouds
7:37 PM 73.4 °F - 71.6 °F 94% 29.93 in 10.0 mi WSW 2.3 mph - N/A   Mostly Cloudy
7:39 PM 73.4 °F - 71.6 °F 94% 29.93 in 10.0 mi SW 2.3 mph - N/A   Light Drizzle
7:48 PM 73.4 °F - 71.6 °F 94% 29.93 in 10.0 mi Calm Calm - N/A   Mostly Cloudy
7:58 PM 72.9 °F - 71.2 °F 95% 29.94 in 10.0 mi Calm Calm - 0.00 in   Overcast
8:33 PM 73.4 °F - 71.6 °F 94% 29.94 in 10.0 mi West 2.3 mph - N/A Rain Light Rain
8:38 PM 73.4 °F - 71.6 °F 94% 29.94 in 10.0 mi WNW 2.3 mph - N/A Rain Light Rain
8:58 PM 72.9 °F - 71.2 °F 95% 29.95 in 8.0 mi NW 5.8 mph - 0.00 in   Light Drizzle
9:16 PM 71.6 °F - 71.6 °F 100% 29.95 in 10.0 mi NNW 8.1 mph - N/A   Overcast
9:26 PM 71.6 °F - 69.8 °F 94% 29.94 in 10.0 mi NNW 5.8 mph - N/A   Overcast
9:31 PM 71.6 °F - 69.8 °F 94% 29.94 in 10.0 mi NNW 5.8 mph - N/A   Overcast
9:51 PM 71.6 °F - 69.8 °F 94% 29.95 in 10.0 mi Variable 5.8 mph - N/A   Overcast
9:58 PM 71.2 °F - 69.8 °F 95% 29.95 in 10.0 mi NW 8.1 mph - 0.00 in   Overcast
10:09 PM 71.6 °F - 69.8 °F 94% 29.95 in 10.0 mi NNW 5.8 mph - N/A   Overcast
10:23 PM 69.8 °F - 69.8 °F 100% 29.95 in 10.0 mi North 5.8 mph - N/A   Overcast
10:24 PM 69.8 °F - 68.0 °F 94% 29.95 in 10.0 mi NNW 5.8 mph - N/A   Overcast
10:28 PM 69.8 °F - 68.0 °F 94% 29.95 in 10.0 mi NNW 6.9 mph - N/A   Overcast
10:33 PM 69.8 °F - 68.0 °F 94% 29.95 in 10.0 mi NNW 6.9 mph - N/A   Overcast
10:34 PM 69.8 °F - 68.0 °F 94% 29.95 in 10.0 mi NNW 6.9 mph - N/A   Overcast
10:38 PM 69.8 °F - 68.0 °F 94% 29.95 in 10.0 mi NNW 5.8 mph - N/A   Overcast
10:39 PM 69.8 °F - 68.0 °F 94% 29.95 in 10.0 mi NNW 6.9 mph - N/A   Overcast
10:43 PM 69.8 °F - 68.0 °F 94% 29.95 in 10.0 mi NNW 5.8 mph - N/A   Overcast
10:48 PM 69.8 °F - 68.0 °F 94% 29.95 in 10.0 mi NNW 5.8 mph - N/A   Overcast
10:49 PM 69.8 °F - 68.0 °F 94% 29.95 in 10.0 mi NNW 5.8 mph - N/A   Overcast
10:53 PM 69.8 °F - 68.0 °F 94% 29.95 in 10.0 mi NNW 8.1 mph - N/A   Overcast
10:54 PM 69.8 °F - 68.0 °F 94% 29.95 in 10.0 mi NNW 8.1 mph - N/A   Overcast
10:58 PM 70.0 °F - 68.2 °F 94% 29.95 in 10.0 mi NNW 8.1 mph - N/A   Overcast
10:59 PM 69.8 °F - 68.0 °F 94% 29.95 in 10.0 mi NW 8.1 mph - N/A   Overcast
11:03 PM 69.8 °F - 68.0 °F 94% 29.95 in 10.0 mi NNW 6.9 mph - N/A   Overcast
11:04 PM 69.8 °F - 68.0 °F 94% 29.95 in 10.0 mi NNW 6.9 mph - N/A   Overcast
11:08 PM 69.8 °F - 68.0 °F 94% 29.95 in 10.0 mi NNW 8.1 mph - N/A   Overcast
11:23 PM 69.8 °F - 68.0 °F 94% 29.94 in 10.0 mi NNW 6.9 mph - N/A   Overcast
11:24 PM 69.8 °F - 68.0 °F 94% 29.94 in 10.0 mi NNW 6.9 mph - N/A   Overcast
11:28 PM 69.8 °F - 68.0 °F 94% 29.94 in 10.0 mi NNW 5.8 mph - N/A   Overcast
11:38 PM 69.8 °F - 68.0 °F 94% 29.94 in 10.0 mi NNW 5.8 mph - N/A   Overcast
11:39 PM 69.8 °F - 68.0 °F 94% 29.94 in 10.0 mi North 5.8 mph - N/A   Overcast
11:43 PM 69.8 °F - 68.0 °F 94% 29.94 in 10.0 mi Variable 5.8 mph - N/A   Overcast
11:58 PM 69.3 °F - 67.5 °F 94% 29.93 in 10.0 mi North 4.6 mph - N/A   Overcast